When you browse on this site, cookies collect data to enhance your experience and personalize the content and advertising you see.
Visit our Privacy Policy to learn more. By continuing to use the site, you agree to this use of cookies and data.
  • In Österreich
  • Länderverzeichnis
  • Für 7 Tage
  • Wassertemperatur
  • Wetterkarte
  • News
  • Widgets
  • user-avatar
    Anmelden

    Stündliche Wetter Venkatagiri

    Heute, 27 Mai, Mittwoch

    Zeit Temperatur Niederschläge Wind Luftdruck Luftfeuchtigkeit
    00:00 +31°C° 0 mm 2 m/S 750 mmHg 73%
    01:00 +31°C° 0 mm 2 m/S 749 mmHg 74%
    02:00 +31°C° 0 mm 2 m/S 748 mmHg 75%
    03:00 +31°C° 0 mm 2 m/S 749 mmHg 76%
    04:00 +30°C° 0 mm 2 m/S 749 mmHg 77%
    05:00 +30°C° 0 mm 2 m/S 749 mmHg 80%
    06:00 +32°C° 0 mm 2 m/S 749 mmHg 71%
    07:00 +35°C° 0 mm 2 m/S 749 mmHg 63%
    08:00 +37°C° 0 mm 2 m/S 750 mmHg 54%
    09:00 +39°C° 0 mm 2 m/S 750 mmHg 45%
    10:00 +41°C° 0 mm 1 m/S 750 mmHg 37%
    11:00 +44°C° 0 mm 1 m/S 750 mmHg 29%
    12:00 +45°C° 0 mm 2 m/S 749 mmHg 25%
    13:00 +46°C° 0 mm 2 m/S 747 mmHg 22%
    14:00 +47°C° 0 mm 3 m/S 746 mmHg 19%
    15:00 +45°C° 0 mm 4 m/S 746 mmHg 25%
    16:00 +45°C° 0 mm 6 m/S 746 mmHg 32%
    17:00 +43°C° 0 mm 8 m/S 746 mmHg 39%
    18:00 +40°C° 0 mm 6 m/S 747 mmHg 46%
    19:00 +37°C° 0 mm 5 m/S 747 mmHg 52%
    20:00 +36°C° 0 mm 3 m/S 748 mmHg 59%
    21:00 +35°C° 0 mm 3 m/S 748 mmHg 62%
    22:00 +34°C° 0 mm 3 m/S 749 mmHg 64%
    23:00 +34°C° 0 mm 3 m/S 749 mmHg 67%

    Morgen, 28 Mai, Donnerstag

    Zeit Temperatur Niederschläge Wind Luftdruck Luftfeuchtigkeit
    00:00 +32°C° 0 mm 2 m/S 748 mmHg 68%
    01:00 +32°C° 0 mm 2 m/S 748 mmHg 69%
    02:00 +31°C° 0 mm 2 m/S 747 mmHg 71%
    03:00 +31°C° 0 mm 2 m/S 747 mmHg 70%
    04:00 +31°C° 0 mm 1 m/S 747 mmHg 70%
    05:00 +31°C° 0 mm 1 m/S 747 mmHg 70%
    06:00 +35°C° 0 mm 2 m/S 748 mmHg 59%
    07:00 +37°C° 0 mm 3 m/S 748 mmHg 48%
    08:00 +41°C° 0 mm 4 m/S 749 mmHg 37%
    09:00 +43°C° 0 mm 4 m/S 749 mmHg 32%
    10:00 +45°C° 0 mm 4 m/S 748 mmHg 26%
    11:00 +48°C° 0 mm 4 m/S 748 mmHg 21%
    12:00 +47°C° 0 mm 3 m/S 747 mmHg 19%
    13:00 +47°C° 0 mm 3 m/S 746 mmHg 18%
    14:00 +48°C° 0 mm 2 m/S 745 mmHg 17%
    15:00 +46°C° 0 mm 3 m/S 745 mmHg 22%
    16:00 +46°C° 0 mm 5 m/S 745 mmHg 27%
    17:00 +44°C° 0 mm 6 m/S 745 mmHg 32%
    18:00 +41°C° 0 mm 6 m/S 746 mmHg 38%
    19:00 +39°C° 0 mm 5 m/S 746 mmHg 44%
    20:00 +37°C° 0 mm 5 m/S 747 mmHg 50%
    21:00 +36°C° 0 mm 4 m/S 747 mmHg 54%
    22:00 +35°C° 0 mm 4 m/S 747 mmHg 58%
    23:00 +34°C° 0 mm 3 m/S 747 mmHg 62%

    übermorgen, 29 Mai, Freitag

    Zeit Temperatur Niederschläge Wind Luftdruck Luftfeuchtigkeit
    00:00 +34°C° 0 mm 3 m/S 747 mmHg 62%
    01:00 +34°C° 0 mm 3 m/S 747 mmHg 63%
    02:00 +34°C° 0 mm 3 m/S 746 mmHg 63%
    03:00 +34°C° 0 mm 2 m/S 747 mmHg 61%
    04:00 +34°C° 0 mm 2 m/S 747 mmHg 59%
    05:00 +34°C° 0 mm 2 m/S 747 mmHg 56%
    06:00 +36°C° 0 mm 3 m/S 748 mmHg 51%
    07:00 +37°C° 0 mm 4 m/S 748 mmHg 46%
    08:00 +40°C° 0 mm 4 m/S 749 mmHg 41%
    09:00 +42°C° 0 mm 4 m/S 748 mmHg 35%
    10:00 +43°C° 0 mm 5 m/S 748 mmHg 30%
    11:00 +46°C° 0 mm 5 m/S 748 mmHg 24%
    12:00 +47°C° 0 mm 4 m/S 747 mmHg 22%
    13:00 +48°C° 0 mm 4 m/S 746 mmHg 20%
    14:00 +48°C° 0 mm 3 m/S 745 mmHg 18%
    15:00 +47°C° 0 mm 4 m/S 745 mmHg 22%
    16:00 +45°C° 0 mm 4 m/S 745 mmHg 26%
    17:00 +45°C° 0 mm 5 m/S 745 mmHg 29%
    18:00 +42°C° 0 mm 5 m/S 745 mmHg 35%
    19:00 +40°C° 0 mm 5 m/S 746 mmHg 41%
    20:00 +37°C° 0 mm 5 m/S 747 mmHg 46%
    21:00 +36°C° 0 mm 4 m/S 747 mmHg 51%
    22:00 +35°C° 0 mm 3 m/S 747 mmHg 56%
    23:00 +35°C° 0 mm 3 m/S 748 mmHg 60%

    30 Mai, Samstag

    Zeit Temperatur Niederschläge Wind Luftdruck Luftfeuchtigkeit
    00:00 +34°C° 0 mm 3 m/S 747 mmHg 59%
    01:00 +34°C° 0 mm 3 m/S 747 mmHg 58%
    02:00 +34°C° 0 mm 2 m/S 747 mmHg 57%
    03:00 +32°C° 0.1 mm 2 m/S 747 mmHg 56%
    04:00 +32°C° 0.1 mm 2 m/S 748 mmHg 55%
    05:00 +32°C° 0.1 mm 2 m/S 748 mmHg 54%
    06:00 +35°C° 0.1 mm 3 m/S 748 mmHg 51%
    07:00 +37°C° 0.1 mm 3 m/S 749 mmHg 47%
    08:00 +38°C° 0.1 mm 4 m/S 750 mmHg 43%
    09:00 +41°C° 0 mm 4 m/S 749 mmHg 38%
    10:00 +43°C° 0 mm 4 m/S 749 mmHg 33%
    11:00 +46°C° 0 mm 5 m/S 749 mmHg 28%
    12:00 +45°C° 0 mm 4 m/S 748 mmHg 25%
    13:00 +46°C° 0 mm 3 m/S 747 mmHg 23%
    14:00 +47°C° 0 mm 2 m/S 746 mmHg 21%
    15:00 +46°C° 0 mm 3 m/S 746 mmHg 24%
    16:00 +46°C° 0 mm 5 m/S 746 mmHg 27%
    17:00 +44°C° 0 mm 7 m/S 746 mmHg 30%
    18:00 +41°C° 0 mm 6 m/S 747 mmHg 37%
    19:00 +39°C° 0 mm 6 m/S 747 mmHg 44%
    20:00 +37°C° 0 mm 5 m/S 748 mmHg 51%
    21:00 +36°C° 0 mm 4 m/S 749 mmHg 55%
    22:00 +35°C° 0 mm 3 m/S 749 mmHg 59%
    23:00 +34°C° 0 mm 2 m/S 750 mmHg 63%

    31 Mai, Sonntag

    Zeit Temperatur Niederschläge Wind Luftdruck Luftfeuchtigkeit
    00:00 +34°C° 0 mm 2 m/S 749 mmHg 64%
    01:00 +34°C° 0 mm 2 m/S 749 mmHg 64%
    02:00 +34°C° 0 mm 2 m/S 748 mmHg 65%
    03:00 +32°C° 0 mm 2 m/S 749 mmHg 65%
    04:00 +32°C° 0 mm 2 m/S 749 mmHg 65%
    05:00 +32°C° 0 mm 2 m/S 750 mmHg 64%
    06:00 +35°C° 0 mm 3 m/S 750 mmHg 57%
    07:00 +37°C° 0 mm 3 m/S 751 mmHg 49%
    08:00 +40°C° 0 mm 4 m/S 751 mmHg 41%
    09:00 +41°C° 0 mm 4 m/S 751 mmHg 37%
    10:00 +43°C° 0 mm 3 m/S 750 mmHg 32%
    11:00 +45°C° 0 mm 3 m/S 750 mmHg 27%
    12:00 +45°C° 0 mm 3 m/S 749 mmHg 24%
    13:00 +46°C° 0 mm 3 m/S 748 mmHg 22%
    14:00 +47°C° 0 mm 2 m/S 747 mmHg 19%
    15:00 +45°C° 0 mm 4 m/S 747 mmHg 26%
    16:00 +44°C° 0 mm 6 m/S 747 mmHg 34%
    17:00 +41°C° 0 mm 8 m/S 747 mmHg 41%
    18:00 +39°C° 0 mm 7 m/S 748 mmHg 46%
    19:00 +37°C° 0 mm 5 m/S 749 mmHg 52%
    20:00 +35°C° 0 mm 4 m/S 749 mmHg 58%
    21:00 +35°C° 0 mm 3 m/S 750 mmHg 61%
    22:00 +34°C° 0 mm 2 m/S 750 mmHg 64%
    23:00 +34°C° 0 mm 2 m/S 751 mmHg 67%

    1 Juni, Montag

    Zeit Temperatur Niederschläge Wind Luftdruck Luftfeuchtigkeit
    00:00 +32°C° 0 mm 2 m/S 750 mmHg 68%
    01:00 +32°C° 0 mm 2 m/S 750 mmHg 70%
    02:00 +32°C° 0 mm 2 m/S 749 mmHg 71%
    03:00 +31°C° 0 mm 2 m/S 749 mmHg 71%
    04:00 +31°C° 0 mm 1 m/S 750 mmHg 72%
    05:00 +31°C° 0 mm 1 m/S 750 mmHg 72%
    06:00 +32°C° 0 mm 2 m/S 750 mmHg 64%
    07:00 +35°C° 0 mm 2 m/S 751 mmHg 57%
    08:00 +37°C° 0 mm 2 m/S 751 mmHg 50%
    09:00 +39°C° 0 mm 2 m/S 751 mmHg 42%
    10:00 +41°C° 0 mm 2 m/S 751 mmHg 35%
    11:00 +43°C° 0 mm 1 m/S 750 mmHg 28%
    12:00 +45°C° 0 mm 2 m/S 750 mmHg 25%
    13:00 +46°C° 0 mm 3 m/S 749 mmHg 22%
    14:00 +47°C° 0 mm 3 m/S 748 mmHg 19%
    15:00 +46°C° 0 mm 5 m/S 748 mmHg 27%
    16:00 +42°C° 0 mm 6 m/S 748 mmHg 35%
    17:00 +40°C° 0 mm 8 m/S 747 mmHg 43%
    18:00 +39°C° 0.2 mm 6 m/S 748 mmHg 47%
    19:00 +37°C° 0.2 mm 4 m/S 748 mmHg 52%
    20:00 +35°C° 0.2 mm 3 m/S 749 mmHg 57%
    21:00 +35°C° 0 mm 3 m/S 749 mmHg 59%
    22:00 +34°C° 0 mm 3 m/S 749 mmHg 62%
    23:00 +34°C° 0 mm 2 m/S 750 mmHg 65%
    Mehr zeigen